When you browse on this site, cookies collect data to enhance your experience and personalize the content and advertising you see.
Visit our Privacy Policy to learn more. By continuing to use the site, you agree to this use of cookies and data.

Hourly Weather Kadugli

Today, 2 July, Thursday

Time Temperature Precipitation Wind Pressure Humidity
00:00 +29°C° 0 mm 3 mps 709 mmHg 61%
01:00 +28°C° 0 mm 3 mps 709 mmHg 63%
02:00 +27°C° 0 mm 3 mps 709 mmHg 65%
03:00 +27°C° 0 mm 3 mps 709 mmHg 67%
04:00 +27°C° 0 mm 3 mps 709 mmHg 68%
05:00 +27°C° 0 mm 3 mps 709 mmHg 69%
06:00 +27°C° 0.5 mm 3 mps 709 mmHg 70%
07:00 +27°C° 0.5 mm 4 mps 710 mmHg 72%
08:00 +26°C° 0 mm 3 mps 710 mmHg 75%
09:00 +27°C° 0.2 mm 3 mps 710 mmHg 70%
10:00 +28°C° 0.2 mm 3 mps 711 mmHg 66%
11:00 +29°C° 0.2 mm 2 mps 711 mmHg 61%
12:00 +29°C° 0 mm 3 mps 710 mmHg 60%
13:00 +30°C° 0 mm 3 mps 710 mmHg 58%
14:00 +34°C° 0 mm 3 mps 709 mmHg 46%
15:00 +34°C° 0 mm 4 mps 709 mmHg 45%
16:00 +34°C° 0 mm 4 mps 709 mmHg 44%
17:00 +34°C° 0 mm 5 mps 709 mmHg 43%
18:00 +33°C° 0 mm 4 mps 709 mmHg 47%
19:00 +31°C° 0 mm 3 mps 709 mmHg 51%
20:00 +29°C° 0 mm 3 mps 709 mmHg 55%
21:00 +29°C° 0 mm 3 mps 709 mmHg 60%
22:00 +28°C° 0 mm 3 mps 710 mmHg 65%
23:00 +27°C° 0 mm 3 mps 710 mmHg 71%

Tomorrow, 3 July, Friday

Time Temperature Precipitation Wind Pressure Humidity
00:00 +26°C° 0 mm 3 mps 709 mmHg 73%
01:00 +26°C° 0 mm 3 mps 709 mmHg 75%
02:00 +25°C° 0 mm 2 mps 709 mmHg 77%
03:00 +25°C° 0 mm 3 mps 709 mmHg 77%
04:00 +25°C° 0 mm 3 mps 709 mmHg 78%
05:00 +25°C° 0 mm 3 mps 709 mmHg 78%
06:00 +25°C° 0 mm 3 mps 710 mmHg 78%
07:00 +26°C° 0 mm 3 mps 710 mmHg 77%
08:00 +26°C° 0 mm 4 mps 711 mmHg 76%
09:00 +26°C° 0 mm 3 mps 711 mmHg 72%
10:00 +27°C° 0 mm 3 mps 711 mmHg 68%
11:00 +28°C° 0 mm 3 mps 711 mmHg 65%
12:00 +30°C° 0 mm 3 mps 711 mmHg 57%
13:00 +33°C° 0 mm 4 mps 711 mmHg 50%
14:00 +35°C° 0 mm 4 mps 710 mmHg 43%
15:00 +35°C° 0 mm 4 mps 710 mmHg 42%
16:00 +35°C° 0 mm 3 mps 709 mmHg 41%
17:00 +35°C° 0 mm 3 mps 709 mmHg 40%
18:00 +34°C° 0 mm 3 mps 709 mmHg 45%
19:00 +31°C° 0 mm 2 mps 709 mmHg 50%
20:00 +30°C° 0 mm 2 mps 709 mmHg 54%
21:00 +29°C° 0 mm 2 mps 710 mmHg 56%
22:00 +29°C° 0 mm 2 mps 710 mmHg 57%
23:00 +28°C° 0 mm 1 mps 710 mmHg 59%

Day after tomorrow, 4 July, Saturday

Time Temperature Precipitation Wind Pressure Humidity
00:00 +28°C° 0 mm 1 mps 710 mmHg 60%
01:00 +28°C° 0 mm 1 mps 710 mmHg 61%
02:00 +27°C° 0 mm 1 mps 709 mmHg 62%
03:00 +27°C° 0 mm 1 mps 710 mmHg 64%
04:00 +27°C° 0 mm 1 mps 710 mmHg 66%
05:00 +26°C° 0 mm 1 mps 710 mmHg 67%
06:00 +27°C° 0 mm 1 mps 710 mmHg 65%
07:00 +28°C° 0 mm 2 mps 711 mmHg 63%
08:00 +29°C° 0 mm 2 mps 711 mmHg 61%
09:00 +30°C° 0 mm 2 mps 711 mmHg 55%
10:00 +33°C° 0 mm 3 mps 711 mmHg 49%
11:00 +34°C° 0 mm 3 mps 711 mmHg 44%
12:00 +35°C° 0 mm 3 mps 710 mmHg 40%
13:00 +36°C° 0 mm 2 mps 710 mmHg 37%
14:00 +37°C° 0 mm 2 mps 709 mmHg 34%
15:00 +37°C° 0 mm 2 mps 709 mmHg 33%
16:00 +37°C° 0 mm 2 mps 708 mmHg 32%
17:00 +37°C° 0 mm 2 mps 708 mmHg 32%
18:00 +35°C° 0 mm 1 mps 708 mmHg 35%
19:00 +34°C° 0 mm 1 mps 709 mmHg 38%
20:00 +32°C° 0 mm 1 mps 709 mmHg 42%
21:00 +32°C° 0.1 mm 1 mps 709 mmHg 44%
22:00 +31°C° 0.1 mm 1 mps 709 mmHg 46%
23:00 +30°C° 0.1 mm 1 mps 709 mmHg 49%

5 July, Sunday

Time Temperature Precipitation Wind Pressure Humidity
00:00 +30°C° 0.1 mm 1 mps 709 mmHg 52%
01:00 +29°C° 0.1 mm 2 mps 709 mmHg 56%
02:00 +28°C° 0.1 mm 2 mps 709 mmHg 59%
03:00 +28°C° 0 mm 2 mps 709 mmHg 62%
04:00 +28°C° 0 mm 2 mps 708 mmHg 65%
05:00 +27°C° 0 mm 2 mps 708 mmHg 67%
06:00 +28°C° 0 mm 3 mps 709 mmHg 64%
07:00 +29°C° 0 mm 3 mps 709 mmHg 62%
08:00 +30°C° 0 mm 3 mps 710 mmHg 59%
09:00 +32°C° 0 mm 4 mps 710 mmHg 55%
10:00 +34°C° 0 mm 5 mps 710 mmHg 50%
11:00 +35°C° 0 mm 5 mps 710 mmHg 46%
12:00 +36°C° 0 mm 5 mps 709 mmHg 44%
13:00 +37°C° 0 mm 5 mps 709 mmHg 42%
14:00 +37°C° 0 mm 4 mps 708 mmHg 40%
15:00 +37°C° 0 mm 4 mps 708 mmHg 40%
16:00 +37°C° 0 mm 4 mps 707 mmHg 40%
17:00 +37°C° 0 mm 4 mps 707 mmHg 40%
18:00 +33°C° 8 mm 6 mps 707 mmHg 55%
19:00 +28°C° 8 mm 8 mps 707 mmHg 70%
20:00 +23°C° 8 mm 11 mps 708 mmHg 84%
21:00 +23°C° 7.3 mm 8 mps 708 mmHg 82%
22:00 +24°C° 7.3 mm 6 mps 709 mmHg 79%
23:00 +25°C° 7.3 mm 4 mps 710 mmHg 76%

6 July, Monday

Time Temperature Precipitation Wind Pressure Humidity
00:00 +25°C° 0 mm 3 mps 710 mmHg 75%
01:00 +25°C° 0 mm 2 mps 709 mmHg 74%
02:00 +25°C° 0 mm 2 mps 709 mmHg 73%
03:00 +25°C° 0 mm 2 mps 709 mmHg 74%
04:00 +25°C° 0 mm 2 mps 709 mmHg 75%
05:00 +25°C° 0 mm 1 mps 708 mmHg 76%
06:00 +25°C° 0 mm 1 mps 709 mmHg 76%
07:00 +25°C° 0 mm 1 mps 709 mmHg 75%
08:00 +26°C° 0 mm 1 mps 709 mmHg 75%
09:00 +26°C° 0 mm 2 mps 709 mmHg 74%
10:00 +26°C° 0 mm 2 mps 709 mmHg 74%
11:00 +26°C° 0 mm 3 mps 709 mmHg 74%
12:00 +27°C° 0 mm 3 mps 709 mmHg 72%
13:00 +27°C° 0 mm 4 mps 708 mmHg 71%
14:00 +28°C° 0 mm 4 mps 708 mmHg 69%
15:00 +28°C° 0 mm 4 mps 708 mmHg 68%
16:00 +29°C° 0 mm 4 mps 707 mmHg 66%
17:00 +29°C° 0 mm 4 mps 707 mmHg 65%
18:00 +28°C° 0 mm 3 mps 708 mmHg 69%
19:00 +27°C° 0 mm 2 mps 708 mmHg 73%
20:00 +27°C° 0 mm 1 mps 709 mmHg 77%
21:00 +26°C° 0 mm 1 mps 709 mmHg 79%
22:00 +26°C° 0 mm 1 mps 709 mmHg 80%
23:00 +26°C° 0 mm 1 mps 710 mmHg 82%

7 July, Tuesday

Time Temperature Precipitation Wind Pressure Humidity
00:00 +26°C° 0.1 mm 1 mps 709 mmHg 83%
01:00 +25°C° 0.1 mm 1 mps 709 mmHg 83%
02:00 +25°C° 0.1 mm 2 mps 709 mmHg 84%
03:00 +25°C° 0 mm 2 mps 709 mmHg 85%
04:00 +25°C° 0 mm 2 mps 709 mmHg 86%
05:00 +25°C° 0 mm 2 mps 709 mmHg 86%
06:00 +25°C° 0.2 mm 2 mps 710 mmHg 85%
07:00 +25°C° 0.2 mm 3 mps 710 mmHg 84%
08:00 +25°C° 0.2 mm 3 mps 711 mmHg 83%
09:00 +26°C° 0.2 mm 3 mps 711 mmHg 81%
10:00 +26°C° 0.2 mm 2 mps 711 mmHg 79%
11:00 +26°C° 0.2 mm 1 mps 711 mmHg 77%
12:00 +27°C° 0 mm 2 mps 710 mmHg 72%
13:00 +28°C° 0 mm 2 mps 710 mmHg 67%
14:00 +29°C° 0 mm 3 mps 710 mmHg 62%
15:00 +28°C° 0 mm 3 mps 709 mmHg 64%
16:00 +28°C° 0 mm 3 mps 709 mmHg 67%
17:00 +27°C° 0 mm 3 mps 709 mmHg 70%
18:00 +27°C° 0.2 mm 3 mps 709 mmHg 72%
19:00 +27°C° 0.2 mm 3 mps 710 mmHg 74%
20:00 +26°C° 0.2 mm 3 mps 710 mmHg 76%
21:00 +26°C° 0 mm 3 mps 710 mmHg 77%
22:00 +26°C° 0 mm 3 mps 710 mmHg 77%
23:00 +25°C° 0 mm 3 mps 710 mmHg 78%
Show more